Overview Statistics Trail Chart Weather Telemetry Raw packets
 

This is the latest recevied weather packets stored in our database for station/object WABI. If no packets are shown the sender has not sent any weather packets the latest 10 day(s).

<< 4 5 6 7 8 9 10 >>
Time Temp. Humidity Pressure Rain* Wind** Luminosity Snow
1787823475 30° C 70% 1010 hPa 0 mm - - -
1787821464 31.11° C 66% 1009 hPa 0 mm - - -
1787819201 31.11° C 62% 1009 hPa 0 mm - - -
1787817162 32.22° C 59% 1009 hPa 0 mm - - -
1787815112 32.22° C 59% 1009 hPa 0 mm - - -
1787813070 32.22° C 59% 1010 hPa 0 mm - - -
1787808865 32.22° C 59% 1010 hPa 0 mm - - -
1787806859 32.22° C 56% 1011 hPa 0 mm - - -
1787804710 32.22° C 59% 1012 hPa 0 mm - - -
1787802711 32.78° C 53% 1013 hPa 0 mm - - -
1787800729 32.78° C 49% 1013 hPa 0 mm - - -
1787798794 32.22° C 56% 1014 hPa 0 mm - - -
1787796727 31.11° C 59% 1014 hPa 0 mm - - -
1787794698 30° C 59% 1015 hPa 0 mm - - -
1787792698 28.89° C 62% 1015 hPa 0 mm - - -
1787790714 27.78° C 66% 1015 hPa 0 mm - - -
1787788727 27.22° C 70% 1015 hPa 0 mm - - -
1787786665 25° C 83% 1015 hPa 0 mm - - -
1787627219 27.22° C 66% 1015 hPa 0 mm - - -
1787625172 27.22° C 66% 1015 hPa 0 mm - - -
1787623188 27.22° C 66% 1015 hPa 0 mm - - -
1787621209 27.22° C 66% 1015 hPa 0 mm - - -
1787619174 27.22° C 66% 1015 hPa 0 mm - - -
1787617202 25° C 74% 1015 hPa 0 mm - - -
1787615232 23.89° C 83% 1014 hPa 0 mm - - -

* Rain latest hour (hover to see other rain measurements)
** Current wind speed in m/s (hover to see current wind gust speed)